User: anonymous   Login
Location: Academy at Carrie F Thomas
(32.8490°N, 97.2053°W)
Time: 22:09:22
(UTC+00:00)
Language:

Meteor 2-15 Rocket - Orbit

View from above orbital plane
View from above orbital plane
View from above satellite
View from above satellite

Ground track
Ground track

The orbit data is extracted from the following two-line orbital elements,

1 17291U 87001B   22138.34112700  .00000064  00000-0  43970-4 0  9997
2 17291  82.4700 218.3195 0012231  52.9790 307.2487 13.84593894786975
Epoch (UTC): 18 May 2022 08:11:13
Eccentricity: 0.0012231
inclination: 82.4700°
perigee height: 938 km
apogee height: 956 km
right ascension of ascending node: 218.3195°
argument of perigee: 52.9790°
revolutions per day: 13.84593894
mean anomaly at epoch: 307.2487°
orbit number at epoch: 78697

The dashed part of the orbit path shows where the satellite is in the earth's shadow,  

DLR